Location: Banff
(51.1667°N, 115.5667°W)
Time: 15:59:25
(UTC+00:00)

Transit 2A - All Passes

Search period start: 24 November 2020 00:00
Search period end: 04 December 2020 00:00
Orbit: 594 x 964 km, 66.7° (Epoch: 24 November)

Date Brightness Start Highest point End Pass type
(mag) Time Alt. Az. Time Alt. Az. Time Alt. Az.
24 Nov - 01:31:45 10° S 01:37:09 31° ESE 01:42:22 10° NE visible
24 Nov - 03:13:48 10° SW 03:20:07 69° NW 03:26:02 10° NE visible
24 Nov - 04:59:19 10° W 05:04:21 25° NNW 05:09:04 10° NNE visible
24 Nov - 06:45:53 10° NW 06:49:34 17° N 06:53:04 10° NE night (unlit)
24 Nov - 08:30:19 10° NNW 08:34:50 24° NNE 08:38:59 10° ENE night (unlit)
24 Nov - 10:13:34 10° NW 10:19:03 72° NE 10:23:55 10° SE night (unlit)
24 Nov - 11:57:41 10° WNW 12:01:37 22° WSW 12:05:16 10° SSW night (unlit)
25 Nov - 00:58:25 10° SSE 01:03:12 23° ESE 01:07:49 10° ENE visible
25 Nov - 02:39:32 10° SW 02:45:53 87° NW 02:51:52 10° NE visible
25 Nov - 04:24:31 10° W 04:29:52 29° NNW 04:34:55 10° NNE visible
25 Nov - 06:11:11 10° NW 06:14:58 17° N 06:18:33 10° NNE night (unlit)
25 Nov - 07:56:05 10° NNW 08:00:19 21° NNE 08:04:14 10° ENE night (unlit)
25 Nov - 09:39:23 10° NNW 09:44:48 55° NE 09:49:37 10° ESE night (unlit)
25 Nov - 11:23:08 10° NW 11:27:42 30° WSW 11:31:51 10° S night (unlit)
26 Nov - 00:25:28 10° SE 00:29:16 17° ESE 00:33:00 10° ENE visible
26 Nov - 02:05:25 10° SSW 02:11:43 74° SE 02:17:40 10° NE visible
26 Nov - 03:49:49 10° W 03:55:28 35° NW 04:00:46 10° NNE visible
26 Nov - 05:36:24 10° NW 05:40:22 18° NNW 05:44:09 10° NNE visible
26 Nov - 07:21:48 10° NNW 07:25:46 19° NNE 07:29:29 10° ENE night (unlit)
26 Nov - 09:05:14 10° NNW 09:10:29 42° NE 09:15:11 10° ESE night (unlit)
26 Nov - 10:48:43 10° NW 10:53:43 42° WSW 10:58:12 10° S night (unlit)
26 Nov - 23:53:15 10° ESE 23:55:25 12° ESE 23:57:34 10° E daylight
27 Nov - 01:31:26 10° SSW 01:37:36 56° ESE 01:43:26 10° NE visible
27 Nov - 03:15:11 10° WSW 03:21:05 42° NW 03:26:38 10° NNE visible
27 Nov - 05:01:33 10° WNW 05:05:48 19° NNW 05:09:50 10° NNE visible
27 Nov - 06:47:26 10° NNW 06:51:11 17° N 06:54:43 10° NE night (unlit)
27 Nov - 08:31:05 10° NNW 08:36:06 34° NE 08:40:40 10° E night (unlit)
27 Nov - 10:14:24 10° NW 10:19:40 59° WSW 10:24:22 10° SSE night (unlit)
28 Nov - 00:57:38 10° S 01:03:31 43° ESE 01:09:08 10° NE visible
28 Nov - 02:40:40 10° WSW 02:46:46 52° NW 02:52:29 10° NNE visible
28 Nov - 04:26:42 10° WNW 04:31:15 21° NNW 04:35:34 10° NNE visible
28 Nov - 06:12:59 10° NW 06:16:36 17° N 06:20:01 10° NE visible
28 Nov - 07:56:55 10° NNW 08:01:41 28° NNE 08:06:03 10° E night (unlit)
28 Nov - 09:40:09 10° NW 09:45:33 81° SW 09:50:21 10° SSE night (unlit)
28 Nov - 11:25:10 10° WNW 11:27:44 14° WSW 11:30:10 10° SW night (unlit)
29 Nov - 00:24:00 10° S 00:29:30 32° ESE 00:34:45 10° NE visible
29 Nov - 02:06:15 10° SW 02:12:30 66° NW 02:18:21 10° NE visible
29 Nov - 03:51:52 10° W 03:56:46 24° NNW 04:01:22 10° NNE visible
29 Nov - 05:38:25 10° NW 05:42:00 16° N 05:45:24 10° NE visible
29 Nov - 07:22:44 10° NNW 07:27:13 24° NNE 07:31:21 10° E night (unlit)
29 Nov - 09:05:57 10° NW 09:11:23 76° NE 09:16:12 10° SE night (unlit)
29 Nov - 10:50:11 10° WNW 10:53:52 20° WSW 10:57:18 10° SSW night (unlit)
29 Nov - 23:50:38 10° SSE 23:55:31 24° ESE 00:00:13 10° ENE daylight
30 Nov - 01:31:57 10° SW 01:38:16 83° NW 01:44:11 10° NE visible
30 Nov - 03:17:04 10° W 03:22:18 28° NNW 03:27:12 10° NNE visible
30 Nov - 05:03:43 10° NW 05:07:23 17° N 05:10:52 10° NE visible
30 Nov - 06:48:31 10° NNW 06:52:43 21° NNE 06:56:37 10° ENE night (unlit)
30 Nov - 08:31:47 10° NNW 08:37:08 57° NE 08:41:54 10° SE night (unlit)
30 Nov - 10:15:35 10° NW 10:19:57 28° WSW 10:23:59 10° S night (unlit)
30 Nov - 23:17:35 10° SE 23:21:36 18° ESE 23:25:29 10° ENE daylight
01 Dec - 00:57:47 10° SSW 01:04:05 78° SE 01:10:00 10° NE visible
01 Dec - 02:42:19 10° W 02:47:52 33° NW 02:53:03 10° NNE visible
01 Dec - 04:28:57 10° NW 04:32:48 17° N 04:36:27 10° NNE visible
01 Dec - 06:14:15 10° NNW 06:18:10 19° NNE 06:21:50 10° ENE night (unlit)
01 Dec - 07:57:37 10° NNW 08:02:50 44° NE 08:07:30 10° ESE night (unlit)
01 Dec - 09:41:09 10° NW 09:45:59 39° WSW 09:50:22 10° S night (unlit)
01 Dec - 22:45:10 10° SE 22:47:43 13° ESE 22:50:14 10° ENE daylight
02 Dec - 00:23:47 10° SSW 00:29:57 60° ESE 00:35:46 10° NE visible
02 Dec - 02:07:41 10° WSW 02:13:29 40° NW 02:18:55 10° NNE visible
02 Dec - 03:54:07 10° WNW 03:58:14 19° NNW 04:02:07 10° NNE visible
02 Dec - 05:39:54 10° NNW 05:43:36 17° N 05:47:05 10° NE visible
02 Dec - 07:23:28 10° NNW 07:28:28 35° NE 07:33:00 10° ESE night (unlit)
02 Dec - 09:06:49 10° NW 09:11:57 55° WSW 09:16:34 10° SSE night (unlit)
02 Dec - 23:49:56 10° S 23:55:52 45° ESE 00:01:29 10° NE daylight
03 Dec - 01:33:07 10° WSW 01:39:09 50° NW 01:44:47 10° NNE visible
03 Dec - 03:19:15 10° WNW 03:23:41 21° NNW 03:27:51 10° NNE visible
03 Dec - 05:05:28 10° NNW 05:09:01 16° N 05:12:21 10° NE visible
03 Dec - 06:49:18 10° NNW 06:54:04 29° NNE 06:58:23 10° E night (unlit)
03 Dec - 08:32:33 10° NW 08:37:51 76° SW 08:42:34 10° SSE night (unlit)
03 Dec - 10:17:51 10° WNW 10:19:58 13° WSW 10:22:00 10° SW night (unlit)
03 Dec - 23:16:17 10° S 23:21:50 34° ESE 23:27:06 10° NE daylight
